Station Historical Data
Daily Summary for June 23, 2017 Units:  Metric    English   Both
« Previous Day
Next Day »
Daily Weekly Monthly Yearly Custom
  High: Low: Average:
Temperature: 25.5 °C 20.4 °C 22.9 °C
Dew Point: 21.3 °C 19.2 °C 20 °C
Humidity: 93% 72% 84%
Wind Speed: 24.1km/h 0km/h 6.9km/h
Wind Gust: 32.2km/h - -
Wind- - SW
Pressure: 1008 hPa 998.9 hPa -
Precipitation: 0 mm    
Historical Graphs
 
 
Tabular Data for June 23, 2017
Time Temperature Dew Point Pressure Wind Wind Speed Wind Gust Humidity Rainfall Rate (Hourly)
00:04 25.4 °C 20.6 °C 1008 hPa SSW 8 km/h 19.3 km/h 75% 0 mm
00:09 25.4 °C 20.6 °C 1008 hPa SSW 8 km/h 19.3 km/h 75% 0 mm
00:14 25.4 °C 20.4 °C 1008 hPa SSW 9.7 km/h 20.9 km/h 74% 0 mm
00:19 25.4 °C 20.4 °C 1008 hPa SSW 11.3 km/h 24.1 km/h 74% 0 mm
00:24 25.5 °C 20.5 °C 1008 hPa SSW 9.7 km/h 24.1 km/h 74% 0 mm
00:29 25.4 °C 20.4 °C 1007.7 hPa SSW 11.3 km/h 19.3 km/h 74% 0 mm
00:34 25.3 °C 20.5 °C 1007.7 hPa SW 9.7 km/h 19.3 km/h 75% 0 mm
00:39 25.1 °C 20.4 °C 1007.7 hPa South 4.8 km/h 17.7 km/h 75% 0 mm
00:44 25.1 °C 20.3 °C 1007.3 hPa South 9.7 km/h 16.1 km/h 75% 0 mm
00:49 25 °C 20.3 °C 1007.3 hPa WSW 6.4 km/h 14.5 km/h 75% 0 mm
00:54 25 °C 20.3 °C 1007.3 hPa SSW 6.4 km/h 16.1 km/h 75% 0 mm
00:59 25 °C 20.3 °C 1007.3 hPa SSW 4.8 km/h 17.7 km/h 75% 0 mm
01:04 24.9 °C 20.2 °C 1007.3 hPa SW 6.4 km/h 20.9 km/h 75% 0 mm
01:09 24.8 °C 20.1 °C 1007.3 hPa SW 6.4 km/h 24.1 km/h 75% 0 mm
01:14 24.8 °C 20.1 °C 1007.3 hPa SW 11.3 km/h 17.7 km/h 75% 0 mm
01:19 24.8 °C 20.1 °C 1007.3 hPa SSW 9.7 km/h 17.7 km/h 75% 0 mm
01:24 24.8 °C 20.1 °C 1007.3 hPa WSW 8 km/h 17.7 km/h 75% 0 mm
01:29 24.8 °C 20.1 °C 1007.3 hPa SW 9.7 km/h 19.3 km/h 75% 0 mm
01:34 24.8 °C 20.1 °C 1007.3 hPa SW 8 km/h 19.3 km/h 75% 0 mm
01:39 24.7 °C 20 °C 1007.3 hPa WSW 8 km/h 16.1 km/h 75% 0 mm
01:44 24.7 °C 19.9 °C 1007.3 hPa WSW 6.4 km/h 16.1 km/h 75% 0 mm
01:49 24.4 °C 19.9 °C 1007.3 hPa WSW 6.4 km/h 16.1 km/h 76% 0 mm
01:54 24.2 °C 19.9 °C 1007 hPa WSW 4.8 km/h 16.1 km/h 77% 0 mm
01:59 24 °C 19.7 °C 1007 hPa WSW 4.8 km/h 12.9 km/h 77% 0 mm
02:04 23.8 °C 19.8 °C 1007 hPa SW 3.2 km/h 12.9 km/h 78% 0 mm
02:09 23.8 °C 19.7 °C 1007 hPa SSW 3.2 km/h 17.7 km/h 78% 0 mm
02:14 23.8 °C 19.7 °C 1007 hPa WSW 9.7 km/h 14.5 km/h 78% 0 mm
02:19 23.8 °C 19.7 °C 1006.7 hPa West 6.4 km/h 14.5 km/h 78% 0 mm
02:24 23.8 °C 19.7 °C 1006.7 hPa SW 4.8 km/h 8 km/h 78% 0 mm
02:29 23.8 °C 19.7 °C 1006.7 hPa SW 6.4 km/h 11.3 km/h 78% 0 mm
02:34 23.7 °C 19.7 °C 1006.7 hPa SW 4.8 km/h 11.3 km/h 78% 0 mm
02:39 23.7 °C 19.7 °C 1006.3 hPa SW 4.8 km/h 11.3 km/h 78% 0 mm
02:44 23.6 °C 19.6 °C 1006.3 hPa SW 4.8 km/h 11.3 km/h 78% 0 mm
02:49 23.5 °C 19.7 °C 1006.3 hPa SW 3.2 km/h 8 km/h 79% 0 mm
02:54 23.5 °C 19.7 °C 1006.3 hPa SW 3.2 km/h 8 km/h 79% 0 mm
02:59 23.4 °C 19.6 °C 1006.3 hPa SW 3.2 km/h 8 km/h 79% 0 mm
03:04 23.4 °C 19.6 °C 1006.3 hPa Calm   6.4 km/h 79% 0 mm
03:09 23.3 °C 19.7 °C 1006.3 hPa SW 4.8 km/h 6.4 km/h 80% 0 mm
03:14 23.3 °C 19.7 °C 1006.3 hPa SSW 6.4 km/h 6.4 km/h 80% 0 mm
03:19 23.3 °C 19.7 °C 1006.3 hPa SW 1.6 km/h 9.7 km/h 80% 0 mm
03:24 23.4 °C 19.8 °C 1006.3 hPa South 6.4 km/h 11.3 km/h 80% 0 mm
03:29 23.5 °C 19.8 °C 1006.3 hPa SW 8 km/h 9.7 km/h 80% 0 mm
03:34 23.6 °C 19.9 °C 1006.3 hPa SW 4.8 km/h 11.3 km/h 80% 0 mm
03:39 23.8 °C 19.9 °C 1006.3 hPa SW 6.4 km/h 12.9 km/h 79% 0 mm
03:44 24 °C 19.9 °C 1006 hPa SW 8 km/h 24.1 km/h 78% 0 mm
03:49 24.2 °C 20.1 °C 1006 hPa SW 9.7 km/h 24.1 km/h 78% 0 mm
03:54 24.2 °C 19.9 °C 1006 hPa SW 8 km/h 20.9 km/h 77% 0 mm
03:59 24.3 °C 20.2 °C 1006 hPa SW 8 km/h 19.3 km/h 78% 0 mm
04:04 24.2 °C 19.9 °C 1006 hPa SW 8 km/h 19.3 km/h 77% 0 mm
04:09 24.3 °C 20 °C 1006 hPa SW 6.4 km/h 32.2 km/h 77% 0 mm
04:14 24.3 °C 20 °C 1006 hPa WSW 3.2 km/h 20.9 km/h 77% 0 mm
04:19 24.3 °C 20 °C 1006 hPa SW 11.3 km/h 17.7 km/h 77% 0 mm
04:24 24.3 °C 20 °C 1006 hPa SSW 4.8 km/h 14.5 km/h 77% 0 mm
04:29 24.3 °C 20 °C 1006 hPa SW 8 km/h 14.5 km/h 77% 0 mm
04:34 24.3 °C 20 °C 1006 hPa SW 8 km/h 17.7 km/h 77% 0 mm
04:39 24.3 °C 20 °C 1005.6 hPa West 4.8 km/h 19.3 km/h 77% 0 mm
04:44 24.2 °C 19.9 °C 1005.6 hPa WSW 4.8 km/h 16.1 km/h 77% 0 mm
04:49 24.2 °C 19.9 °C 1005.6 hPa South 4.8 km/h 16.1 km/h 77% 0 mm
04:54 24.2 °C 19.9 °C 1005.6 hPa SSW 4.8 km/h 17.7 km/h 77% 0 mm
04:59 24.2 °C 19.9 °C 1005.6 hPa SW 8 km/h 17.7 km/h 77% 0 mm
05:04 24.2 °C 19.7 °C 1005.3 hPa SW 8 km/h 17.7 km/h 76% 0 mm
05:09 24.2 °C 19.7 °C 1005.3 hPa SW 8 km/h 16.1 km/h 76% 0 mm
05:14 24.2 °C 19.9 °C 1005.3 hPa SW 8 km/h 16.1 km/h 77% 0 mm
05:19 24.1 °C 19.8 °C 1005.3 hPa SW 8 km/h 17.7 km/h 77% 0 mm
05:24 24.1 °C 19.6 °C 1005.3 hPa SW 17.7 km/h 17.7 km/h 76% 0 mm
05:29 24.1 °C 19.8 °C 1005.3 hPa SW 9.7 km/h 20.9 km/h 77% 0 mm
05:34 24 °C 19.5 °C 1005.3 hPa SW 8 km/h 20.9 km/h 76% 0 mm
05:39 23.9 °C 19.7 °C 1005.3 hPa WSW 4.8 km/h 14.5 km/h 77% 0 mm
05:44 23.9 °C 19.7 °C 1005.3 hPa SSW 1.6 km/h 14.5 km/h 77% 0 mm
05:49 23.9 °C 19.7 °C 1005.3 hPa SW 12.9 km/h 16.1 km/h 77% 0 mm
05:54 23.9 °C 19.4 °C 1005.3 hPa WSW 8 km/h 19.3 km/h 76% 0 mm
05:59 23.9 °C 19.6 °C 1005 hPa SW 8 km/h 16.1 km/h 77% 0 mm
06:04 23.9 °C 19.6 °C 1005 hPa SW 8 km/h 17.7 km/h 77% 0 mm
06:09 23.8 °C 19.6 °C 1005 hPa SW 8 km/h 24.1 km/h 77% 0 mm
06:14 23.8 °C 19.6 °C 1005 hPa SW 8 km/h 24.1 km/h 77% 0 mm
06:19 23.8 °C 19.5 °C 1005 hPa SW 6.4 km/h 14.5 km/h 77% 0 mm
06:24 23.7 °C 19.4 °C 1005 hPa SSW 3.2 km/h 12.9 km/h 77% 0 mm
06:29 23.6 °C 19.5 °C 1005 hPa WSW 6.4 km/h 11.3 km/h 78% 0 mm
06:34 23.6 °C 19.6 °C 1005 hPa SW 4.8 km/h 11.3 km/h 78% 0 mm
06:39 23.7 °C 19.4 °C 1005 hPa SW 4.8 km/h 12.9 km/h 77% 0 mm
06:44 23.8 °C 19.6 °C 1005 hPa SW 8 km/h 12.9 km/h 77% 0 mm
06:49 23.8 °C 19.6 °C 1005 hPa WSW 3.2 km/h 14.5 km/h 77% 0 mm
06:54 23.8 °C 19.5 °C 1005 hPa SW 4.8 km/h 12.9 km/h 77% 0 mm
06:59 23.8 °C 19.6 °C 1005 hPa SSW 11.3 km/h 11.3 km/h 77% 0 mm
07:04 23.8 °C 19.6 °C 1004.6 hPa West 4.8 km/h 17.7 km/h 77% 0 mm
07:09 23.8 °C 19.6 °C 1004.6 hPa SSW 6.4 km/h 22.5 km/h 77% 0 mm
07:14 23.8 °C 19.5 °C 1004.6 hPa SW 6.4 km/h 22.5 km/h 77% 0 mm
07:19 23.8 °C 19.6 °C 1004.6 hPa SW 4.8 km/h 11.3 km/h 77% 0 mm
07:24 23.9 °C 19.6 °C 1004.6 hPa SW 4.8 km/h 11.3 km/h 77% 0 mm
07:29 23.9 °C 19.7 °C 1004.6 hPa SSW 4.8 km/h 16.1 km/h 77% 0 mm
07:34 23.9 °C 19.6 °C 1004.6 hPa SSW 9.7 km/h 20.9 km/h 77% 0 mm
07:39 23.8 °C 19.6 °C 1004.6 hPa SSW 4.8 km/h 12.9 km/h 77% 0 mm
07:44 23.9 °C 19.6 °C 1004.6 hPa SSW 4.8 km/h 17.7 km/h 77% 0 mm
07:49 24.1 °C 19.8 °C 1004.6 hPa SW 4.8 km/h 9.7 km/h 77% 0 mm
07:54 24.1 °C 19.8 °C 1004.6 hPa SSW 4.8 km/h 11.3 km/h 77% 0 mm
07:59 24.1 °C 19.8 °C 1004.6 hPa SSW 9.7 km/h 12.9 km/h 77% 0 mm
08:04 24.2 °C 19.7 °C 1004.3 hPa SSE 1.6 km/h 11.3 km/h 76% 0 mm
08:09 24.3 °C 19.8 °C 1004.3 hPa SSW 6.4 km/h 14.5 km/h 76% 0 mm
08:14 24.5 °C 19.8 °C 1004.3 hPa SSW 6.4 km/h 14.5 km/h 75% 0 mm
08:19 24.6 °C 19.7 °C 1004.3 hPa SSW 6.4 km/h 16.1 km/h 74% 0 mm
08:24 24.7 °C 19.7 °C 1003.9 hPa SW 17.7 km/h 20.9 km/h 74% 0 mm
08:29 24.7 °C 19.7 °C 1003.9 hPa SSW 4.8 km/h 17.7 km/h 74% 0 mm
08:34 24.7 °C 19.8 °C 1003.9 hPa South 11.3 km/h 19.3 km/h 74% 0 mm
08:39 24.6 °C 19.6 °C 1003.9 hPa SSW 9.7 km/h 19.3 km/h 74% 0 mm
08:44 24.8 °C 20.1 °C 1003.9 hPa SSW 8 km/h 17.7 km/h 75% 0 mm
08:49 25 °C 19.8 °C 1003.9 hPa SW 8 km/h 17.7 km/h 73% 0 mm
08:54 25 °C 19.8 °C 1003.9 hPa SW 8 km/h 19.3 km/h 73% 0 mm
08:59 25.1 °C 19.7 °C 1003.6 hPa SSW 8 km/h 19.3 km/h 72% 0 mm
09:04 25.1 °C 19.7 °C 1003.6 hPa WSW 14.5 km/h 22.5 km/h 72% 0 mm
09:09 25.3 °C 19.9 °C 1003.6 hPa South 6.4 km/h 17.7 km/h 72% 0 mm
09:14 25.3 °C 19.9 °C 1003.3 hPa SSE 9.7 km/h 22.5 km/h 72% 0 mm
09:19 25.1 °C 19.7 °C 1003.3 hPa South 14.5 km/h 19.3 km/h 72% 0 mm
09:24 24.8 °C 19.4 °C 1003.3 hPa South 8 km/h 24.1 km/h 72% 0 mm
09:29 24.7 °C 19.6 °C 1003.3 hPa South 14.5 km/h 16.1 km/h 73% 0 mm
09:34 24.6 °C 19.4 °C 1003.3 hPa SSW 17.7 km/h 22.5 km/h 73% 0 mm
09:39 24.6 °C 19.4 °C 1003.3 hPa SSW 8 km/h 22.5 km/h 73% 0 mm
09:44 24.6 °C 19.4 °C 1003.3 hPa SSW 8 km/h 17.7 km/h 73% 0 mm
09:49 24.6 °C 19.4 °C 1002.9 hPa SSW 8 km/h 16.1 km/h 73% 0 mm
09:54 24.7 °C 19.6 °C 1002.9 hPa SSW 8 km/h 17.7 km/h 73% 0 mm
09:59 24.9 °C 19.7 °C 1002.6 hPa SSW 8 km/h 17.7 km/h 73% 0 mm
10:04 24.9 °C 19.8 °C 1002.6 hPa SW 8 km/h 17.7 km/h 73% 0 mm
10:09 24.8 °C 19.4 °C 1002.6 hPa SSW 6.4 km/h 19.3 km/h 72% 0 mm
10:14 24.8 °C 19.6 °C 1002.6 hPa SW 4.8 km/h 19.3 km/h 73% 0 mm
10:19 24.8 °C 19.7 °C 1002.6 hPa South 9.7 km/h 11.3 km/h 73% 0 mm
10:24 24.7 °C 19.3 °C 1002.6 hPa SSW 4.8 km/h 20.9 km/h 72% 0 mm
10:29 24.5 °C 19.3 °C 1002.6 hPa South 8 km/h 17.7 km/h 73% 0 mm
10:34 24.3 °C 19.4 °C 1002.6 hPa SW 6.4 km/h 19.3 km/h 74% 0 mm
10:39 24.2 °C 19.7 °C 1002.6 hPa SW 9.7 km/h 19.3 km/h 76% 0 mm
10:44 23.8 °C 19.8 °C 1002.6 hPa SW 9.7 km/h 17.7 km/h 78% 0 mm
10:49 23.4 °C 19.6 °C 1002.3 hPa SW 4.8 km/h 19.3 km/h 79% 0 mm
10:54 23.2 °C 19.9 °C 1002.3 hPa SW 8 km/h 19.3 km/h 82% 0 mm
10:59 23 °C 19.9 °C 1002.3 hPa SSW 3.2 km/h 12.9 km/h 83% 0.25 mm
11:04 22.8 °C 19.8 °C 1002.3 hPa SSW 8 km/h 16.1 km/h 83% 0.25 mm
11:09 22.7 °C 19.9 °C 1002.3 hPa SW 8 km/h 17.7 km/h 84% 0.25 mm
11:14 22.7 °C 20 °C 1002.3 hPa SW 9.7 km/h 17.7 km/h 85% 0.25 mm
11:19 22.4 °C 19.7 °C 1002.3 hPa SSW 11.3 km/h 17.7 km/h 85% 0.25 mm
11:24 22.3 °C 19.8 °C 1002.3 hPa South 6.4 km/h 17.7 km/h 86% 0.25 mm
11:29 22.3 °C 19.8 °C 1002.3 hPa SSW 3.2 km/h 16.1 km/h 86% 0.25 mm
11:34 22.3 °C 20 °C 1002.3 hPa SW 4.8 km/h 12.9 km/h 87% 0.25 mm
11:39 22.4 °C 20.3 °C 1001.9 hPa SW 6.4 km/h 12.9 km/h 88% 0.25 mm
11:44 22.3 °C 20.2 °C 1001.9 hPa SW 4.8 km/h 12.9 km/h 88% 0.25 mm
11:49 22.4 °C 20.3 °C 1001.6 hPa South 3.2 km/h 9.7 km/h 88% 0.25 mm
11:54 22.6 °C 20.5 °C 1001.6 hPa SW 1.6 km/h 8 km/h 88% 0.25 mm
11:59 22.6 °C 20.5 °C 1001.2 hPa SSW 4.8 km/h 6.4 km/h 88% 0 mm
12:04 22.6 °C 20.3 °C 1001.2 hPa SW 3.2 km/h 8 km/h 87% 0 mm
12:09 22.7 °C 20.4 °C 1001.2 hPa SSW 4.8 km/h 12.9 km/h 87% 0.25 mm
12:14 22.7 °C 20.4 °C 1001.2 hPa SSW 6.4 km/h 12.9 km/h 87% 0.25 mm
12:19 22.8 °C 20.5 °C 1001.2 hPa SSW 6.4 km/h 12.9 km/h 87% 0.25 mm
12:24 22.9 °C 20.7 °C 1001.2 hPa SSW 6.4 km/h 12.9 km/h 87% 0.25 mm
12:29 23.1 °C 20.7 °C 1001.6 hPa SW 8 km/h 12.9 km/h 86% 0.25 mm
12:34 23.3 °C 21 °C 1001.6 hPa SW 6.4 km/h 12.9 km/h 87% 0.25 mm
12:39 23.1 °C 20.6 °C 1001.6 hPa WSW 3.2 km/h 12.9 km/h 86% 0.25 mm
12:44 23.1 °C 20.6 °C 1001.6 hPa SW 1.6 km/h 12.9 km/h 86% 0.25 mm
12:49 22.9 °C 20.5 °C 1001.6 hPa SSW 1.6 km/h 12.9 km/h 86% 0.25 mm
12:54 22.9 °C 20.5 °C 1001.6 hPa SSE 3.2 km/h 17.7 km/h 86% 0.25 mm
12:59 22.8 °C 20.3 °C 1001.6 hPa SW 6.4 km/h 16.1 km/h 86% 0.25 mm
13:04 22.8 °C 20.5 °C 1001.6 hPa SSW 9.7 km/h 14.5 km/h 87% 0.25 mm
13:14 22.8 °C 20.6 °C 1001.6 hPa SW 6.4 km/h 14.5 km/h 87% 0.25 mm
13:19 22.7 °C 20.4 °C 1001.6 hPa SW 4.8 km/h 17.7 km/h 87% 0.51 mm
13:24 22.6 °C 20.4 °C 1001.2 hPa SW 6.4 km/h 17.7 km/h 88% 0.76 mm
13:29 22.6 °C 20.7 °C 1000.9 hPa SSW 1.6 km/h 11.3 km/h 89% 1.02 mm
13:34 22.7 °C 20.8 °C 1000.9 hPa SW 3.2 km/h 11.3 km/h 89% 1.27 mm
13:39 22.8 °C 20.9 °C 1000.9 hPa SSW 4.8 km/h 11.3 km/h 89% 1.27 mm
13:44 22.9 °C 21 °C 1000.9 hPa SSW 4.8 km/h 12.9 km/h 89% 1.27 mm
13:49 22.8 °C 20.9 °C 1000.9 hPa SSW 6.4 km/h 12.9 km/h 89% 1.27 mm
13:54 22.8 °C 20.9 °C 1000.9 hPa Calm   8 km/h 89% 1.52 mm
13:59 22.7 °C 20.6 °C 1000.6 hPa SW 8 km/h 11.3 km/h 88% 1.52 mm
14:04 22.7 °C 20.9 °C 1000.6 hPa SW 4.8 km/h 14.5 km/h 90% 1.52 mm
14:09 22.7 °C 21 °C 1000.2 hPa SSW 4.8 km/h 14.5 km/h 90% 1.52 mm
14:14 22.6 °C 20.9 °C 1000.2 hPa SSW 6.4 km/h 12.9 km/h 90% 1.52 mm
14:19 22.6 °C 20.8 °C 1000.2 hPa South 6.4 km/h 12.9 km/h 90% 1.52 mm
14:24 22.4 °C 20.7 °C 1000.2 hPa SSW 11.3 km/h 14.5 km/h 90% 1.27 mm
14:29 22.3 °C 20.6 °C 1000.2 hPa SSW 6.4 km/h 16.1 km/h 90% 1.27 mm
14:34 22.4 °C 20.9 °C 1000.2 hPa SSW 4.8 km/h 12.9 km/h 91% 1.02 mm
14:39 22.4 °C 20.7 °C 1000.2 hPa SW 6.4 km/h 16.1 km/h 90% 1.02 mm
14:44 22.4 °C 20.7 °C 1000.2 hPa SW 6.4 km/h 16.1 km/h 90% 1.02 mm
14:49 22.4 °C 20.7 °C 1000.2 hPa SW 6.4 km/h 11.3 km/h 90% 1.27 mm
14:54 22.6 °C 21 °C 1000.2 hPa SW 6.4 km/h 11.3 km/h 91% 1.02 mm
14:59 22.9 °C 21.3 °C 1000.2 hPa SE 4.8 km/h 11.3 km/h 91% 1.02 mm
15:04 22.8 °C 21.1 °C 1000.2 hPa South 6.4 km/h 16.1 km/h 90% 1.02 mm
15:09 22.9 °C 21 °C 1000.2 hPa South 8 km/h 19.3 km/h 89% 0.76 mm
15:14 22.8 °C 20.7 °C 1000.2 hPa SSW 8 km/h 19.3 km/h 88% 0.76 mm
15:19 22.8 °C 20.9 °C 999.9 hPa South 4.8 km/h 14.5 km/h 89% 0.51 mm
15:24 22.9 °C 21.1 °C 999.9 hPa SSW 9.7 km/h 16.1 km/h 89% 0.51 mm
15:29 23.1 °C 20.9 °C 999.9 hPa SSW 4.8 km/h 11.3 km/h 88% 0.51 mm
15:34 23 °C 20.9 °C 1000.2 hPa WSW 4.8 km/h 11.3 km/h 88% 0.51 mm
15:39 22.9 °C 20.8 °C 999.9 hPa SW 6.4 km/h 14.5 km/h 88% 0.51 mm
15:44 23 °C 20.9 °C 999.9 hPa SW 6.4 km/h 14.5 km/h 88% 0.51 mm
15:49 22.9 °C 20.8 °C 999.9 hPa SW 4.8 km/h 12.9 km/h 88% 0.25 mm
15:54 22.7 °C 20.6 °C 999.9 hPa SW 6.4 km/h 17.7 km/h 88% 0.25 mm
15:59 22.6 °C 20.7 °C 999.9 hPa SSW 6.4 km/h 17.7 km/h 89% 0.51 mm
16:04 22.5 °C 20.8 °C 999.9 hPa SW 6.4 km/h 14.5 km/h 90% 0.51 mm
16:09 22.4 °C 20.7 °C 999.9 hPa SW 4.8 km/h 12.9 km/h 90% 0.76 mm
16:14 22.3 °C 20.6 °C 999.9 hPa SSW 1.6 km/h 9.7 km/h 90% 0.76 mm
16:19 22.2 °C 20.7 °C 999.9 hPa SSE 4.8 km/h 11.3 km/h 91% 0.76 mm
16:24 22.3 °C 20.7 °C 999.9 hPa SSW 6.4 km/h 8 km/h 91% 1.02 mm
16:29 22.2 °C 20.6 °C 999.9 hPa WSW 4.8 km/h 12.9 km/h 91% 0.76 mm
16:34 22.1 °C 20.5 °C 999.9 hPa SW 3.2 km/h 12.9 km/h 91% 1.02 mm
16:39 21.9 °C 20.4 °C 999.9 hPa WSW 4.8 km/h 14.5 km/h 91% 1.02 mm
16:44 22 °C 20.7 °C 999.5 hPa WSW 4.8 km/h 14.5 km/h 92% 1.27 mm
16:49 22 °C 20.7 °C 999.5 hPa WSW 6.4 km/h 14.5 km/h 92% 1.27 mm
16:54 22.1 °C 20.7 °C 999.5 hPa SW 6.4 km/h 14.5 km/h 92% 1.27 mm
16:59 22.3 °C 20.9 °C 999.5 hPa WSW 3.2 km/h 14.5 km/h 92% 1.02 mm
17:04 22.2 °C 20.8 °C 999.2 hPa SW 6.4 km/h 17.7 km/h 92% 1.02 mm
17:09 22.1 °C 20.7 °C 999.2 hPa WSW 8 km/h 17.7 km/h 92% 0.76 mm
17:14 22 °C 20.4 °C 999.2 hPa WSW 8 km/h 19.3 km/h 91% 0.76 mm
17:19 22 °C 20.4 °C 999.2 hPa WSW 8 km/h 19.3 km/h 91% 0.76 mm
17:24 21.9 °C 20.6 °C 999.2 hPa WSW 8 km/h 16.1 km/h 92% 0.51 mm
17:29 21.9 °C 20.6 °C 999.2 hPa WSW 6.4 km/h 16.1 km/h 92% 0.51 mm
17:34 21.8 °C 20.5 °C 999.2 hPa WSW 6.4 km/h 17.7 km/h 92% 0.25 mm
17:39 21.8 °C 20.5 °C 999.2 hPa WSW 9.7 km/h 19.3 km/h 92% 0.25 mm
17:44 21.8 °C 20.5 °C 999.2 hPa SW 6.4 km/h 19.3 km/h 92% 0 mm
17:49 21.8 °C 20.5 °C 999.2 hPa SW 11.3 km/h 20.9 km/h 92% 0 mm
17:54 21.8 °C 20.5 °C 999.2 hPa WSW 9.7 km/h 17.7 km/h 92% 0 mm
17:59 21.9 °C 20.6 °C 999.2 hPa SSW 6.4 km/h 19.3 km/h 92% 0 mm
18:04 22 °C 20.4 °C 999.2 hPa WSW 9.7 km/h 24.1 km/h 91% 0 mm
18:09 22 °C 20.4 °C 998.9 hPa WSW 11.3 km/h 24.1 km/h 91% 0 mm
18:14 22 °C 20.4 °C 998.9 hPa WSW 9.7 km/h 20.9 km/h 91% 0 mm
18:19 22 °C 20.4 °C 998.9 hPa WSW 11.3 km/h 20.9 km/h 91% 0 mm
18:24 21.9 °C 20.3 °C 999.2 hPa WSW 11.3 km/h 27.4 km/h 91% 0 mm
18:29 21.8 °C 20.3 °C 999.2 hPa SW 11.3 km/h 24.1 km/h 91% 0 mm
18:34 21.7 °C 20.2 °C 999.5 hPa West 9.7 km/h 25.7 km/h 91% 0 mm
18:39 21.6 °C 20.1 °C 999.5 hPa WSW 9.7 km/h 25.7 km/h 91% 0 mm
18:44 21.6 °C 20 °C 999.9 hPa WSW 20.9 km/h 22.5 km/h 91% 0 mm
18:49 21.6 °C 20 °C 999.9 hPa WSW 11.3 km/h 20.9 km/h 91% 0 mm
18:54 21.6 °C 20 °C 999.9 hPa WSW 17.7 km/h 25.7 km/h 91% 0 mm
18:59 21.7 °C 20.2 °C 999.9 hPa NW 14.5 km/h 16.1 km/h 91% 0 mm
19:04 21.7 °C 20.2 °C 999.9 hPa SSW 8 km/h 27.4 km/h 91% 0 mm
19:09 21.7 °C 20.1 °C 1000.2 hPa WSW 11.3 km/h 27.4 km/h 91% 0 mm
19:14 21.6 °C 19.9 °C 999.9 hPa WSW 11.3 km/h 22.5 km/h 90% 0 mm
19:19 21.7 °C 20.1 °C 999.9 hPa WSW 9.7 km/h 20.9 km/h 91% 0 mm
19:24 21.7 °C 20.1 °C 1000.2 hPa West 6.4 km/h 19.3 km/h 91% 0 mm
19:29 21.6 °C 19.9 °C 1000.2 hPa South 12.9 km/h 19.3 km/h 90% 0 mm
19:34 21.6 °C 19.8 °C 1000.2 hPa WSW 9.7 km/h 19.3 km/h 90% 0 mm
19:39 21.6 °C 20 °C 1000.2 hPa WSW 8 km/h 19.3 km/h 91% 0 mm
19:44 21.6 °C 20 °C 1000.2 hPa WSW 6.4 km/h 14.5 km/h 91% 0 mm
19:49 21.6 °C 20 °C 1000.6 hPa West 6.4 km/h 14.5 km/h 91% 0 mm
19:54 21.5 °C 19.9 °C 1000.6 hPa WNW 4.8 km/h 14.5 km/h 91% 0 mm
19:59 21.4 °C 19.9 °C 1000.6 hPa WSW 9.7 km/h 17.7 km/h 91% 0 mm
20:04 21.4 °C 19.9 °C 1000.6 hPa WSW 9.7 km/h 17.7 km/h 91% 0 mm
20:09 21.4 °C 19.9 °C 1000.6 hPa WSW 8 km/h 16.1 km/h 91% 0 mm
20:14 21.4 °C 19.9 °C 1000.6 hPa West 6.4 km/h 17.7 km/h 91% 0 mm
20:19 21.3 °C 19.8 °C 1000.2 hPa WSW 6.4 km/h 19.3 km/h 91% 0 mm
20:24 21.2 °C 19.7 °C 1000.6 hPa West 8 km/h 17.7 km/h 91% 0 mm
20:29 21.2 °C 19.7 °C 1000.6 hPa WNW 6.4 km/h 19.3 km/h 91% 0 mm
20:34 21.2 °C 19.7 °C 1000.6 hPa WSW 8 km/h 19.3 km/h 91% 0 mm
20:39 21.2 °C 19.6 °C 1000.6 hPa West 8 km/h 17.7 km/h 91% 0 mm
20:44 21.2 °C 19.6 °C 1000.6 hPa WSW 6.4 km/h 16.1 km/h 91% 0 mm
20:49 21.2 °C 19.6 °C 1000.6 hPa WSW 1.6 km/h 12.9 km/h 91% 0 mm
20:54 21.1 °C 19.6 °C 1000.6 hPa West 4.8 km/h 12.9 km/h 91% 0 mm
20:59 21.1 °C 19.6 °C 1000.6 hPa WSW 4.8 km/h 14.5 km/h 91% 0 mm
21:04 21 °C 19.5 °C 1000.6 hPa WSW 8 km/h 14.5 km/h 91% 0 mm
21:09 20.9 °C 19.6 °C 1000.6 hPa WSW 9.7 km/h 17.7 km/h 92% 0 mm
21:14 20.9 °C 19.4 °C 1000.9 hPa WSW 8 km/h 16.1 km/h 91% 0 mm
21:19 20.8 °C 19.5 °C 1000.9 hPa South 6.4 km/h 20.9 km/h 92% 0 mm
21:24 20.8 °C 19.5 °C 1000.9 hPa WSW 6.4 km/h 17.7 km/h 92% 0 mm
21:29 20.8 °C 19.5 °C 1001.2 hPa SW 24.1 km/h 24.1 km/h 92% 0 mm
21:34 20.8 °C 19.4 °C 1001.2 hPa WSW 9.7 km/h 24.1 km/h 92% 0 mm
21:39 20.7 °C 19.4 °C 1001.6 hPa West 9.7 km/h 24.1 km/h 92% 0 mm
21:44 20.8 °C 19.4 °C 1001.6 hPa West 8 km/h 20.9 km/h 92% 0 mm
21:49 20.8 °C 19.5 °C 1001.6 hPa West 6.4 km/h 17.7 km/h 92% 0 mm
21:54 20.8 °C 19.5 °C 1001.6 hPa West 6.4 km/h 11.3 km/h 92% 0 mm
21:59 20.8 °C 19.5 °C 1001.6 hPa West 4.8 km/h 11.3 km/h 92% 0 mm
22:04 20.8 °C 19.5 °C 1001.6 hPa WSW 6.4 km/h 14.5 km/h 92% 0 mm
22:09 20.8 °C 19.4 °C 1001.6 hPa WSW 6.4 km/h 14.5 km/h 92% 0 mm
22:14 20.8 °C 19.4 °C 1001.6 hPa WSW 9.7 km/h 12.9 km/h 92% 0 mm
22:19 20.7 °C 19.4 °C 1001.6 hPa WSW 8 km/h 12.9 km/h 92% 0 mm
22:24 20.7 °C 19.3 °C 1001.6 hPa WSW 4.8 km/h 9.7 km/h 92% 0 mm
22:29 20.7 °C 19.3 °C 1001.6 hPa SW 4.8 km/h 11.3 km/h 92% 0 mm
22:34 20.7 °C 19.3 °C 1001.6 hPa WSW 4.8 km/h 12.9 km/h 92% 0 mm
22:39 20.6 °C 19.3 °C 1001.6 hPa WSW 3.2 km/h 12.9 km/h 92% 0 mm
22:44 20.6 °C 19.2 °C 1001.6 hPa WSW 3.2 km/h 8 km/h 92% 0 mm
22:49 20.6 °C 19.2 °C 1001.6 hPa SW 3.2 km/h 8 km/h 92% 0 mm
22:54 20.6 °C 19.3 °C 1001.6 hPa WSW 4.8 km/h 6.4 km/h 92% 0 mm
22:59 20.6 °C 19.4 °C 1001.6 hPa SW 6.4 km/h 8 km/h 93% 0 mm
23:04 20.6 °C 19.4 °C 1001.6 hPa SW 6.4 km/h 6.4 km/h 93% 0 mm
23:09 20.6 °C 19.4 °C 1001.6 hPa WSW 4.8 km/h 9.7 km/h 93% 0 mm
23:14 20.6 °C 19.2 °C 1001.6 hPa WSW 4.8 km/h 11.3 km/h 92% 0 mm
23:19 20.6 °C 19.4 °C 1001.6 hPa WSW 4.8 km/h 11.3 km/h 93% 0 mm
23:24 20.6 °C 19.4 °C 1001.9 hPa WSW 4.8 km/h 11.3 km/h 93% 0 mm
23:29 20.5 °C 19.3 °C 1001.6 hPa WSW 4.8 km/h 11.3 km/h 93% 0 mm
23:34 20.5 °C 19.3 °C 1001.6 hPa West 4.8 km/h 11.3 km/h 93% 0 mm
23:39 20.4 °C 19.3 °C 1001.6 hPa West 3.2 km/h 6.4 km/h 93% 0 mm
23:44 20.4 °C 19.3 °C 1001.6 hPa WSW 3.2 km/h 8 km/h 93% 0 mm
23:49 20.4 °C 19.3 °C 1001.6 hPa WSW 4.8 km/h 6.4 km/h 93% 0 mm
23:54 20.4 °C 19.3 °C 1001.6 hPa SW 6.4 km/h 8 km/h 93% 0 mm
23:59 20.4 °C 19.3 °C 1001.9 hPa WSW 1.6 km/h 9.7 km/h 93% 0 mm
Buffalo, New York, USA
Compliments of Weather Underground - 2.5 mb